Location: B?lite?ti
(46.2833°N, 22.7333°E)
Time: 17:27:11
(UTC+00:00)

USA 234 - Pass Details

Date: 24 January 2021
Orbit: 1100 x 1107 km, 123.0° (Epoch: 26 February)

Event Time Altitude Azimuth Distance (km) Brightness Sun altitude
Exits shadow 15:42:06 - 60° (ENE) 3,484 5.2 -4.0°
Reaches altitude 10° 15:43:35 10° 55° (NE) 2,965 4.9 -4.2°
Maximum altitude 15:49:25 36° 352° (N) 1,673 4.2 -5.1°
Drops below altitude 10° 15:55:15 10° 289° (WNW) 2,967 6.4 -6.1°
Sets 15:57:55 0° 281° (WNW) 3,925 7.3 -6.5°
